Location: 10033 Water Well
(34.0865°N, 106.8959°W)
Time: 22:49:22
(UTC+00:00)

COSMO-SKYMED 1 - Pass Details

Date: 13 January 2026
Orbit: 578 x 579 km, 97.9° (Epoch: 11 February)

Event Time Altitude Azimuth Distance (km) Brightness Sun altitude
Exits shadow 01:11:37 - 17° (NNE) 2,690 5.5 -11.0°
Reaches altitude 10° 01:13:33 10° 22° (NNE) 1,895 4.7 -11.3°
Maximum altitude 01:17:35 55° 100° (E) 695 2.5 -12.1°
Drops below altitude 10° 01:21:35 10° 179° (S) 1,881 5.2 -12.9°
Sets 01:23:45 0° 184° (S) 2,775 6.2 -13.4°
